Weather History for KSBY - October, 2012

Change the Weather History Date:

Saturday, October 6, 2012

  Actual Average Record
Temperature  
Mean Temperature 71 °F 60 °F  
Max Temperature 83 °F 71 °F 92 °F (1997)
Min Temperature 59 °F 50 °F 31 °F (1965)
Degree Days  
Heating Degree Days 0 6  
Month to date heating degree days 3 31  
Since 1 July heating degree days 22 79  
Cooling Degree Days 6 1  
Month to date cooling degree days 50 10  
Year to date cooling degree days 1712 1135  
Growing Degree Days 22 (Base 50)    
Moisture  
Dew Point 59 °F    
Average Humidity 70    
Maximum Humidity 93    
Minimum Humidity 47    
Precipitation  
Precipitation 0.03 in 0.12 in 2.72 in (2006)
Month to date precipitation 0.24 0.69  
Year to date precipitation 30.54 35.74  
Snow  
Snow 0.00 in 0.00 in 0.00 in (2002)
Month to date snowfall 0.0 0.0  
Since 1 July snowfall 0.0 0.0  
Snow Depth 0.00 in    
Sea Level Pressure  
Sea Level Pressure 29.93 in    
Wind  
Wind Speed 9 mph (WSW)    
Max Wind Speed 25 mph    
Max Gust Speed 33 mph    
Visibility 8 miles    
Events Rain    
T = Trace of Precipitation, MM = Missing Value Source: NWS Daily Summary

Daily Weather History Graph

Daily Weather History Graph

Search for Another Location

Airport or City:

Trip Planner

Search our weather history database for the weather conditions in past years. The results will help you decide how hot, cold, wet, or windy it might be!

Date:

Astronomy

Oct. 06, 2012 Rise Set
Actual Time 7:02 AM EDT 6:36 PM EDT
Civil Twilight 6:36 AM EDT 7:02 PM EDT
Nautical Twilight 6:05 AM EDT 7:33 PM EDT
Astronomical Twilight 5:34 AM EDT 8:04 PM EDT
Moon 10:53 PM EDT (10/6) 12:51 PM EDT (10/6)
Length of Visible Light 12h 26m
Length of Day
11h 33m
Waning Gibbous, 65% of the Moon is Illuminated
Oct 6
Waning Gibbous
Oct 8
Last Quarter
Oct 15
New
Oct 21
First Quarter
Oct 29
Full

Hourly Weather History & Observations

Time (EDT) Temp. Heat Index Dew Point Humidity Pressure Visibility Wind Dir Wind Speed Gust Speed Precip Events Conditions
12:54 AM 63.0 °F - 59.0 °F 87% 29.99 in 8.0 mi SSW 4.6 mph - N/A   Clear
1:54 AM 64.9 °F - 60.1 °F 84% 29.98 in 10.0 mi SSW 5.8 mph - N/A   Clear
2:54 AM 64.0 °F - 59.0 °F 84% 29.95 in 8.0 mi South 4.6 mph - N/A   Clear
3:54 AM 64.0 °F - 60.1 °F 87% 29.95 in 7.0 mi SSW 5.8 mph - N/A   Clear
4:54 AM 63.0 °F - 59.0 °F 87% 29.94 in 5.0 mi SSW 4.6 mph - N/A   Clear
5:54 AM 63.0 °F - 59.0 °F 87% 29.93 in 6.0 mi SSW 5.8 mph - 0.01 in   Clear
6:54 AM 63.0 °F - 60.1 °F 90% 29.93 in 5.0 mi SSW 5.8 mph - N/A   Clear
7:54 AM 64.9 °F - 62.1 °F 90% 29.93 in 4.0 mi SSW 5.8 mph - N/A   Clear
8:54 AM 70.0 °F - 64.9 °F 84% 29.92 in 9.0 mi SSW 8.1 mph - N/A   Clear
9:54 AM 75.0 °F - 64.0 °F 69% 29.91 in 10.0 mi South 10.4 mph - N/A   Clear
10:54 AM 79.0 °F - 62.1 °F 56% 29.89 in 10.0 mi SW 11.5 mph - N/A   Clear
11:54 AM 81.0 °F 81.9 °F 62.1 °F 52% 29.88 in 10.0 mi WSW 12.7 mph 19.6 mph N/A   Clear
12:54 PM 81.0 °F 81.7 °F 61.0 °F 50% 29.86 in 10.0 mi WSW 16.1 mph 24.2 mph N/A   Clear
2:54 PM 82.0 °F 82.7 °F 61.0 °F 49% 29.84 in 10.0 mi WSW 16.1 mph 23.0 mph N/A   Partly Cloudy
3:54 PM 80.1 °F 81.1 °F 61.0 °F 52% 29.84 in 10.0 mi WSW 11.5 mph - N/A   Mostly Cloudy
4:54 PM 78.1 °F - 63.0 °F 60% 29.85 in 10.0 mi SW 5.8 mph - N/A   Overcast
5:06 PM 69.8 °F - 62.6 °F 78% 29.86 in 2.5 mi NNW 17.3 mph 33.4 mph 0.03 in Rain Heavy Rain
5:14 PM 69.8 °F - 62.6 °F 78% 29.87 in 8.0 mi NNW 13.8 mph 24.2 mph 0.03 in Rain Light Rain
5:54 PM 70.0 °F - 60.1 °F 71% 29.90 in 10.0 mi NNW 11.5 mph - 0.03 in   Partly Cloudy
7:54 PM 66.9 °F - 51.1 °F 57% 29.95 in 10.0 mi NW 6.9 mph 16.1 mph N/A   Mostly Cloudy
8:54 PM 66.0 °F - 50.0 °F 56% 29.97 in 10.0 mi NW 8.1 mph - N/A   Mostly Cloudy
9:54 PM 64.0 °F - 50.0 °F 60% 30.01 in 10.0 mi NNW 8.1 mph - N/A   Mostly Cloudy
10:54 PM 63.0 °F - 46.9 °F 56% 30.03 in 10.0 mi NNW 11.5 mph - N/A   Overcast
11:54 PM 61.0 °F - 46.0 °F 58% 30.03 in 10.0 mi NNW 8.1 mph - N/A   Mostly Cloudy